Orbital Elements at Epoch 2459200.5 (2020-Dec-17.0) TDB
Reference: JPL 29 (heliocentric ecliptic J2000)
Element | Value | Uncertainty (1-sigma) | Units |
e | .1247133853670689 | 4.0337e-08 | |
a | 3.040026059212003 | 1.8248e-08 | au |
q | 2.660894117763565 | 1.2035e-07 | au |
i | 10.49943528312692 | 4.3855e-06 | deg |
node | 245.007171501929 | 2.4294e-05 | deg |
peri | 176.7941267579072 | 3.0929e-05 | deg |
M | 75.28709096510744 | 1.7666e-05 | deg |
tp | 2458795.614333541884 (2019-Nov-08.11433354) | 9.4747e-05 | TDB |
period | 1936.040270070669 5.30 | 1.7432e-05 4.773e-08 | d yr |
n | .1859465454129522 | 1.6742e-09 | deg/d |
Q | 3.419158000660441 | 2.0524e-08 | au |
|
| | Orbit Determination Parameters
Additional Information
|